DELTA 1 DEB

Satellite information

Favourite Embed

Satellite Type and Status

DEBRISIN ORBIT

Key statistics

Satellite DELTA 1 DEB at a glance.

Uptime

18447

Days in orbit

Revolutions

≈ 14.4

Per day

Orbit

SSO

Sun Synchronous Orbit

Inclination

100.0

Latest

Satellite identification and parameters

Extended collection of information and parameters for DELTA 1 DEB.

Object identification

Identified? True

Debris? True

Object name: DELTA 1 DEB

International designator: 1975-052BL

Object number (NORAD): 21342

Object ID (CCSDS): 21342

Country: UNITED STATES OF AMERICA (US)

Current information (Y/N): Y

RCS size: SMALL

Orbital parameters

Period: 100.117 minutes

Inclination: 99.9946 deg

SMA: 7142.179 km

Apoapsis: 853.367 km

Periapsis: 674.721 km

RAAN: 327.3431 deg

Eccentricy: 0.01250636

Argument of periapsis: 95.8701 deg

Mean anomaly: 34.2293 deg

Mean motion: 14.38323802 rev/day

Mean motion (dot): 0.00007536 rev/day2

B* drag term: 0.0022755842 1/REarth

Two-line elements (TLE)

Creation date: Dec. 11, 2025, 10:54 a.m.

Reference frame: TEME

Reference center: EARTH

Epoch: Dec. 11, 2025, 4:25 a.m. UTC

TLE line 0: 0 DELTA 1 DEB

TLE line 1: 1 21342U 75052BL 25345.18418466 .00007536 00000-0 22756-2 0 9993

TLE line 2: 2 21342 99.9946 327.3431 0125064 95.8701 34.2293 14.38323802778224

Live tracking on map

Real-time ground track for satellite DELTA 1 DEB.

In-orbit conjunctions

A list of the most updated potential collisions computed for object DELTA 1 DEB.

Target Orbit TCA Probability of collision Miss distance Type
SL-16 DEB LEO 2025-05-21 22:38:19 0.0001102051 75.0 (m) DEBRIS
CZ-6A DEB LEO 2024-11-05 03:18:20 0.0001223169 873.0 (m) DEBRIS
IRS 1A SSO 2024-08-08 09:53:18 0.000236155 957.0 (m) PAYLOAD
METEOR 1-12 LEO 2024-08-05 16:35:33 0.0001574374 504.0 (m) PAYLOAD

Associated space launch

Experimental meteorological satellite

DELTA 1 DEB was lifted into orbit during the mission ‘Delta 2910 | Nimbus 6’, on board a Delta 2910 space rocket.

The launch took place on June 12, 1975, 8:12 a.m. from Space Launch Complex 2W.

For more information about the launch, click the button.

Launch to space Delta 2910 | Nimbus 6
Delta 2910 | Nimbus 6

Agency: N/A

Status: Launch Successful

Launch date: June 12, 1975, 8:12 a.m. UTC

Rocket: Delta 2910

Launch pad: Space Launch Complex 2W

Location: Vandenberg SFB, CA, USA

...

Latest news about this satellite

There are no fresh news available about this satellite. Check back as we update our databases every day.


Newsletter sign-up

Weekly statistics, charts and insights to help you stay on top of the space industry.